AirNav   Pilot Hours Calculator
 
 1451 users online  

99MO Parkland Health Center Heliport
Bonne Terre, Missouri, USA

GOING TO BONNE TERRE?


FAA INFORMATION EFFECTIVE 31 DECEMBER 2020

Location

FAA Identifier: 99MO
Lat/Long: 37-54-43.1100N 090-31-55.6700W
37-54.718500N 090-31.927833W
37.9119750,-90.5321306
(estimated)
Elevation: 850 ft. / 259 m (estimated)
Variation: 01E (1995)
From city: 1 mile S of BONNE TERRE, MO
Time zone: UTC -6 (UTC -5 during Daylight Saving Time)
Zip code: 63628

Heliport Operations

Heliport use: Private use, FOR MEDICAL USE ONLY.
Activation date: 09/1996
Control tower: no
ARTCC: KANSAS CITY CENTER
FSS: COLUMBIA FLIGHT SERVICE STATION
Attendance: CONTINUOUS
Wind indicator: yes
Segmented circle: no
Lights: FOR PERIMETER LIGHTS CALL 573-760-8163.

Heliport Communications

WX AWOS-3PT at FAM (10 nm SE): 119.275 (573-756-6042)

Nearby radio navigation aids

VOR radial/distance  VOR name  Freq  Var
FAMr314/20.1FARMINGTON VORTAC115.7001E

Heliport Services

Runway Information

Helipad H1

Dimensions: 40 x 40 ft. / 12 x 12 m
Surface: asphalt
Latitude: 37-54.718500N
Longitude: 090-31.927833W
Elevation: 850.0 ft.
Traffic pattern: leftleft

Heliport Ownership and Management from official FAA records

Ownership: Privately-owned
Owner: PARKLAND HEALTH CENTER, BONNE TERRE
7245 RAIDER ROAD
BONNE TERRE, MO 63628
Phone (573) 756-6453
Manager: LYNN RASNICK, ADMIN
7245 RAIDER ROAD
BONNE TERRE, MO 63628
Phone (573) 756-6453

Additional Remarks

A52-H1 40 FT POWER LINE 75 FT E & 75 FT BLDG 200 FT N OF HELIPAD.
OWNER DESIRES ARPT NOT BE CHARTED.
FOR CD CTC KANSAS CITY ARTCC AT 913-254-8508.

Instrument Procedures

There are no published instrument procedures at 99MO.

Some nearby airports with instrument procedures:

8WC - Washington County Airport (9 nm W)
KFAM - Farmington Regional Airport (10 nm SE)
KFES - Festus Memorial Airport (18 nm N)
H88 - A Paul Vance Fredericktown Regional Airport (22 nm SE)
KPCD - Perryville Regional Airport (32 nm E)
 
Loc | Ops | Rwys | IFR | FBO | Links
Com | Nav | Svcs | Stats | Notes
Area around 99MO (Parkland Health Center Heliport)
 
Road maps at: MapQuest Bing Google
 
Aerial photo
No photo
 
Sectional chart

 
Airport distance calculator
Flying to Parkland Health Center Heliport? Find the distance to fly.

From to 99MO

Sunrise and sunset
Times for 15-Jan-2021
 Local
(UTC-6)
 Zulu
(UTC)
Morning civil twilight06:4912:49
Sunrise07:1813:18
Sunset17:0623:06
Evening civil twilight17:3423:34

Current date and time
Zulu (UTC)  15-Jan-2021 17:04:09
Local (UTC-6)  15-Jan-2021 11:04:09
 
METAR
KFAM 
10nm SE 
151656Z AUTO 26010G17KT 10SM -RA BKN033 OVC040 01/M04 A2955 RMK AO2 SLP022 P0000 T00111044 FZRANO
TAF
KCPS 
43nm NE 
151133Z 1512/1612 24010G18KT P6SM -SN OVC060 FM151600 25010G16KT 4SM -SN OVC015 TEMPO 1518/1522 2SM -SN BR VV009 FM160100 29009KT 6SM -SN BR OVC010
KSUS 
45nm N 
151450Z 1515/1612 24010G18KT 3SM -SN OVC025 TEMPO 1518/1522 1SM -SN BR VV009 FM160100 30009KT 6SM -SN BR OVC010
KBLV 
50nm NE 
151600Z 1516/1622 23012G18KT 8000 -SN BKN020 620208 QNH2948INS BECMG 1520/1521 21009KT 6000 -SN OVC015 620158 QNH2949INS BECMG 1603/1604 31009KT 9999 NSW SCT006 OVC010 620109 QNH2959INS BECMG 1607/1608 28009KT 9999 OVC018 620189 QNH2966INS BECMG 1616/1617 28015G20KT 9999 OVC020 620206 QNH2976INS TX02/1516Z TNM01/1606Z
NOTAMs
Click for the latest NOTAMs
NOTAMs are issued by the DoD/FAA and will open in a separate window not controlled by AirNav.

 

 
 

Would you like to see your business listed on this page?

 If your business provides an interesting product or service to pilots, flight crews, aircraft, or users of the Parkland Health Center Heliport, you should consider listing it here.  To start the listing process, click on the button below
 
Add a business
 

Other Pages about Parkland Health Center Heliport

Update a link
 
Copyright © AirNav, LLC. All rights reserved. Privacy Policy  Contact